FENGYUN 1C DEB

Satellite information

Favourite Embed

Satellite Type and Status

DEBRISIN ORBIT

Key statistics

Satellite FENGYUN 1C DEB at a glance.

Uptime

9617

Days in orbit

Revolutions

≈ 13.9

Per day

Orbit

SSO

Sun Synchronous Orbit

Inclination

100.0

Latest

Satellite identification and parameters

Extended collection of information and parameters for FENGYUN 1C DEB.

Object identification

Identified? True

Debris? True

Object name: FENGYUN 1C DEB

International designator: 1999-025DZN

Object number (NORAD): 36692

Object ID (CCSDS): 36692

Country: PEOPLES REPUBLIC OF CHINA (PRC)

Current information (Y/N): Y

RCS size: SMALL

Orbital parameters

Period: 103.353 minutes

Inclination: 99.9977 deg

SMA: 7295.282 km

Apoapsis: 1000.209 km

Periapsis: 834.086 km

RAAN: 135.947 deg

Eccentricy: 0.01138565

Argument of periapsis: 299.8232 deg

Mean anomaly: 59.1646 deg

Mean motion: 13.93283843 rev/day

Mean motion (dot): 0.00000501 rev/day2

B* drag term: 0.00040140075 1/REarth

Two-line elements (TLE)

Creation date: Aug. 26, 2025, 10:27 p.m.

Reference frame: TEME

Reference center: EARTH

Epoch: Aug. 26, 2025, 12:17 p.m. UTC

TLE line 0: 0 FENGYUN 1C DEB

TLE line 1: 1 36692U 99025DZN 25238.51222827 .00000501 00000-0 40140-3 0 9998

TLE line 2: 2 36692 99.9977 135.9470 0113856 299.8232 59.1646 13.93283843582983

Live tracking on map

Real-time ground track for satellite FENGYUN 1C DEB.

In-orbit conjunctions

A list of the most updated potential collisions computed for object FENGYUN 1C DEB.

Target Orbit TCA Probability of collision Miss distance Type
CZ-6A DEB LEO 2024-11-03 11:21:21 0.0001034124 312.0 (m) DEBRIS
COSMOS 1791 LEO 2024-10-12 02:26:49 0.0001379169 828.0 (m) PAYLOAD

Associated space launch

Chinese polar orbiting meteorological satellite

FENGYUN 1C DEB was lifted into orbit during the mission ‘Long March 4B | Feng Yun 1C’, on board a Long March 4B space rocket.

The launch took place on May 10, 1999, 1:33 a.m. from Launch Complex 7.

For more information about the launch, click the button.

Launch to space Long March 4B | Feng Yun 1C
Long March 4B | Feng Yun 1C

Agency: N/A

Status: Launch Successful

Launch date: May 10, 1999, 1:33 a.m. UTC

Rocket: Long March 4B

Launch pad: Launch Complex 7

Location: Taiyuan Satellite Launch Center, People's Republic of China

...

Latest news about this satellite

There are no fresh news available about this satellite. Check back as we update our databases every day.


Newsletter sign-up

Weekly statistics, charts and insights to help you stay on top of the space industry.